Observations for Trim Patrick St
| Time | AQI | Temp °C | Hum % | Pres Pa | CO μg/m³ | H₂S μg/m³ | NO μg/m³ | NO₂ μg/m³ | O₃ μg/m³ | SO₂ μg/m³ | PM1 μg/m³ | PM2.5 μg/m³ | PM10 μg/m³ |
|---|---|---|---|---|---|---|---|---|---|---|---|---|---|
| Sunday 2 August 2026 | |||||||||||||
| 15:01 | 2 | 27.4 | 36 | 69,076 | 0 | 0 | 1.36 | 15.3 | 82.09 | 9.23 | 3.71 | 8.9 | 9.79 |
| 15:00 | 2 | 27.4 | 36 | 69,098 | 0 | 0 | 1.41 | 15.55 | 85.24 | 10.61 | 2 | 8.06 | 8.86 |
| 14:59 | 2 | 27.4 | 36 | 69,100 | 0 | 0 | 1.37 | 14.62 | 75.41 | 10.17 | 3.71 | 9.7 | 10.67 |
| 14:58 | 2 | 27.5 | 36 | 69,102 | 0 | 0 | 1.41 | 17.52 | 81.88 | 8.38 | 2.86 | 8.86 | 9.75 |
| 14:57 | 2 | 27.5 | 36 | 69,098 | 0 | 0 | 1.42 | 16.73 | 79.49 | 10.32 | 3.71 | 9.65 | 10.61 |
| 14:56 | 2 | 27.5 | 36 | 69,094 | 0 | 0 | 1.4 | 14.63 | 76.22 | 9.94 | 3.71 | 8.89 | 9.78 |
| 14:55 | 2 | 27.5 | 36 | 69,088 | 0 | 0 | 1.42 | 17.86 | 94.66 | 10.29 | 3.71 | 8.86 | 9.74 |
| 14:54 | 2 | 27.4 | 36 | 69,082 | 0 | 0 | 1.41 | 16.79 | 79.53 | 8.28 | 2 | 8.86 | 9.75 |
| 14:53 | 2 | 27.4 | 37 | 69,074 | 0 | 0 | 1.43 | 11.57 | 74.47 | 10.08 | 2.86 | 8.84 | 9.72 |
| 14:52 | 2 | 27.4 | 36 | 69,092 | 0 | 0 | 1.41 | 21.11 | 84.14 | 9.56 | 3.71 | 8.88 | 9.76 |
| 14:51 | 2 | 27.3 | 36 | 69,084 | 0 | 0 | 1.41 | 20.68 | 82.9 | 9.19 | 2.86 | 8.88 | 9.77 |
| 14:47 | 2 | 27.2 | 37 | 69,067 | 0 | 0 | 1.42 | 15.89 | 80.35 | 10.07 | 2 | 7.26 | 7.98 |
| 14:46 | 2 | 27.2 | 37 | 69,084 | 0 | 0 | 1.44 | 15.34 | 73.27 | 8.06 | 2.86 | 8.81 | 9.7 |
| 14:45 | 2 | 27.1 | 38 | 69,074 | 0 | 0 | 1.48 | 17.46 | 79.5 | 9.96 | 2.86 | 8.73 | 9.61 |
| 14:44 | 2 | 27 | 37 | 69,065 | 0 | 0 | 1.44 | 15.92 | 73.38 | 8.16 | 2.86 | 8.81 | 9.7 |
| 14:40 | 2 | 26.9 | 38 | 69,065 | 0 | 0 | 1.32 | 12.09 | 73.5 | 9.46 | 2.86 | 8.77 | 9.64 |
| 14:39 | 2 | 26.9 | 37 | 69,057 | 0 | 5.37 | 1.29 | 38.29 | 103 | 10.03 | 2.86 | 8.02 | 8.82 |
| 14:38 | 2 | 26.8 | 38 | 69,071 | 0 | 0 | 1.31 | 16.8 | 78.1 | 7.99 | 2 | 7.93 | 8.73 |
| 14:36 | 2 | 26.7 | 39 | 69,090 | 0 | 0 | 1.27 | 13.84 | 71.71 | 8.65 | 2.86 | 9.46 | 10.41 |
| 14:35 | 2 | 26.7 | 40 | 69,118 | 0 | 7.86 | 1.32 | 24.01 | 83.33 | 9.84 | 5.43 | 11.78 | 12.96 |